Weather observations for the past three days for
Portland-Hillsboro Airport
| Date | Time (pdt) | Wind (mph) | Vis. (mi.) | Weather | Sky Cond. | Temperature (ºF) | Relative Humidity | Wind Chill (°F) | Heat Index (°F) | Pressure | Precipitation (in) | ||||||
|---|---|---|---|---|---|---|---|---|---|---|---|---|---|---|---|---|---|
| Air | Dwpt | 6 hour | altimeter (in) | sea level (mb) | 1 hr | 3 hr | 6 hr | ||||||||||
| Max. | Min. | ||||||||||||||||
| 07 | 13:53 | NW 3 | 10.00 | Fair | CLR | 64 | 45 | 50% | 30.09 | 1018.7 | |||||||
| 07 | 12:53 | Calm | 10.00 | Fair | CLR | 60.1 | 43 | 53% | 30.11 | 1019.5 | |||||||
| 07 | 11:53 | NW 7 | 10.00 | Mostly Cloudy | BKN030 | 60.1 | 44.1 | 56% | 30.12 | 1020.0 | |||||||
| 07 | 10:53 | W 5 | 10.00 | Mostly Cloudy | BKN030 | 57 | 44.1 | 57 | 50 | 62% | 30.14 | 1020.6 | |||||
| 07 | 09:53 | Calm | 10.00 | Overcast | FEW025 OVC035 | 54 | 43 | 67% | 30.15 | 1020.8 | |||||||
| 07 | 08:53 | NW 7 | 10.00 | Overcast | SCT025 OVC032 | 52 | 42.1 | 69% | 30.15 | 1020.8 | |||||||
| 07 | 07:53 | NW 9 | 10.00 | Overcast | OVC024 | 51.1 | 42.1 | 71% | 30.15 | 1020.8 | |||||||
| 07 | 06:53 | NW 7 | 10.00 | Overcast | OVC022 | 50 | 43 | 77% | 48 | 30.14 | 1020.4 | ||||||
| 07 | 05:53 | NW 5 | 10.00 | Overcast | OVC021 | 51.1 | 43 | 74% | 30.13 | 1020.3 | |||||||
| 07 | 04:53 | NW 6 | 10.00 | Overcast | OVC021 | 52 | 43 | 54 | 52 | 72% | 30.14 | 1020.5 | |||||
| 07 | 03:53 | NW 6 | 10.00 | Overcast | OVC024 | 52 | 44.1 | 75% | 30.15 | 1020.6 | |||||||
| 07 | 02:53 | NW 6 | 10.00 | Overcast | OVC029 | 53.1 | 43 | 69% | 30.16 | 1021.0 | |||||||
| 07 | 01:53 | NW 8 | 10.00 | Overcast | OVC030 | 53.1 | 44.1 | 72% | 30.17 | 1021.4 | |||||||
| 07 | 00:53 | NW 5 | 10.00 | Overcast | OVC033 | 54 | 45 | 72% | 30.17 | 1021.3 | |||||||
| 06 | 23:53 | N 8 | 10.00 | Overcast | OVC029 | 54 | 46 | 75% | 30.16 | 1021.1 | |||||||
| 06 | 22:53 | NW 12 | 10.00 | Mostly Cloudy | BKN029 | 54 | 46.9 | 64.9 | 53.1 | 77% | 30.16 | 1021.3 | |||||
| 06 | 21:53 | N 5 | 10.00 | Mostly Cloudy | BKN035 | 55 | 48 | 77% | 30.16 | 1021.3 | |||||||
| 06 | 20:53 | NW 9 | 10.00 | Overcast | OVC031 | 57.9 | 48.9 | 72% | 30.15 | 1020.7 | |||||||
| 06 | 19:53 | NE 5 | 10.00 | Overcast | OVC036 | 59 | 51.1 | 75% | 30.12 | 1019.9 | |||||||
| 06 | 18:53 | NE 9 | 10.00 | A Few Clouds | FEW031 | 62.1 | 52 | 70% | 30.12 | 1019.7 | |||||||
| 06 | 17:53 | NE 12 | 10.00 | Mostly Cloudy | FEW033 BKN047 | 63 | 52 | 68% | 30.12 | 1019.7 | |||||||
| 06 | 16:53 | NE 8 | 10.00 | Overcast | BKN034 OVC044 | 64.9 | 54 | 68 | 60.1 | 68% | 30.11 | 1019.5 | |||||
| 06 | 15:53 | NE 8 | 10.00 | Overcast | OVC038 | 66.9 | 55 | 66% | 30.11 | 1019.6 | |||||||
| 06 | 14:53 | Vrbl 7 | 10.00 | Overcast | OVC038 | 66.9 | 55 | 66% | 30.12 | 1019.9 | |||||||
| 06 | 13:53 | Calm | 10.00 | Overcast | OVC035 | 66 | 53.1 | 63% | 30.13 | 1020.2 | |||||||
| 06 | 12:53 | Vrbl 3 | 10.00 | Mostly Cloudy | BKN035 | 64.9 | 54 | 68% | 30.14 | 1020.3 | |||||||
| 06 | 11:53 | N 6 | 10.00 | Overcast | OVC021 | 61 | 54 | 78% | 30.14 | 1020.6 | |||||||
| 06 | 10:53 | Calm | 10.00 | Overcast | BKN018 OVC023 | 60.1 | 52 | 60.1 | 53.1 | 75% | 30.14 | 1020.6 | |||||
| 06 | 09:53 | Calm | 10.00 | Overcast | BKN014 OVC020 | 57.9 | 52 | 81% | 30.14 | 1020.4 | |||||||
| 06 | 08:53 | Calm | 10.00 | Overcast | OVC016 | 57 | 52 | 83% | 30.13 | 1020.1 | |||||||
| 06 | 07:53 | W 3 | 10.00 | Overcast | OVC020 | 55.9 | 52 | 87% | 30.14 | 1020.3 | |||||||
| 06 | 06:53 | N 5 | 10.00 | Overcast | OVC019 | 55.4 | 51.8 | 88% | 30.1 | 0.0 | |||||||
| 06 | 04:59 | Calm | 10.00 | Overcast | FEW028 OVC035 | 55.4 | 51.8 | 88% | 30.09 | 0.0 | |||||||
| 06 | 04:53 | NW 3 | 10.00 | Overcast | FEW028 OVC035 | 55.4 | 51.8 | 88% | 30.09 | 0.0 | |||||||
| 06 | 03:57 | W 5 | 10.00 | Overcast | OVC033 | 55.4 | 53.6 | 94% | 30.07 | 0.0 | |||||||
| 06 | 03:06 | Calm | 10.00 | Overcast | OVC032 | 57.2 | 53.6 | 88% | 30.06 | 0.0 | |||||||
| 06 | 02:05 | W 5 | 10.00 | Overcast | OVC031 | 57.2 | 53.6 | 88% | 30.05 | 0.0 | |||||||
| 06 | 00:54 | NW 5 | 10.00 | Overcast | OVC031 | 57.2 | 53.6 | 88% | 30.04 | 0.0 | |||||||
| 06 | 00:03 | Calm | 10.00 | Overcast | OVC030 | 57.2 | 53.6 | 88% | 30.03 | 0.0 | |||||||
| 05 | 19:53 | E 6 | 10.00 | Fair | CLR | 62.1 | 52 | 70% | 29.98 | 1015.0 | |||||||
| 05 | 18:53 | NE 7 | 10.00 | Fair | CLR | 64 | 52 | 65% | 29.97 | 1014.8 | |||||||
| 05 | 17:53 | E 8 | 10.00 | Partly Cloudy | SCT030 | 64.9 | 52 | 63% | 29.97 | 1014.8 | |||||||
| 05 | 16:53 | E 7 | 10.00 | Mostly Cloudy | BKN029 | 64.9 | 53.1 | 64.9 | 57.9 | 66% | 29.98 | 1015.1 | |||||
| 05 | 15:53 | E 5 | 10.00 | Overcast | OVC028 | 63 | 52 | 68% | 30 | 1015.7 | |||||||
| 05 | 14:53 | N 3 | 10.00 | Overcast | OVC026 | 62.1 | 52 | 70% | 30.01 | 1016.0 | |||||||
| 05 | 13:53 | Calm | 10.00 | Overcast | OVC024 | 60.1 | 51.1 | 72% | 30.01 | 1016.3 | |||||||
| 05 | 12:53 | NW 5 | 10.00 | Overcast | OVC020 | 59 | 52 | 78% | 30.02 | 1016.6 | |||||||
| 05 | 11:53 | W 5 | 10.00 | Overcast | OVC020 | 59 | 51.1 | 75% | 30.02 | 1016.5 | |||||||
| 05 | 10:53 | S 3 | 10.00 | Overcast | OVC017 | 57.9 | 50 | 57.9 | 53.1 | 75% | 30.02 | 1016.3 | |||||
| 05 | 09:53 | S 6 | 10.00 | Overcast | OVC010 | 57 | 50 | 78% | 30.01 | 1016.0 | |||||||
| 05 | 08:53 | Calm | 6.00 | Fog/Mist | OVC010 | 55 | 50 | 83% | 30 | 1015.8 | |||||||
| 05 | 07:53 | SE 3 | 4.00 | Fog/Mist | OVC010 | 53.1 | 51.1 | 93% | 30 | 1015.6 | |||||||
| 05 | 06:53 | SE 5 | 4.00 | Fog/Mist | OVC010 | 53.1 | 51.1 | 93% | 29.98 | 1015.0 | |||||||
| 05 | 05:53 | Calm | 10.00 | Overcast | OVC013 | 54 | 50 | 87% | 29.97 | 1014.6 | |||||||
| 05 | 04:53 | Calm | 10.00 | Overcast | OVC014 | 54 | 50 | 59 | 50 | 87% | 29.97 | 1014.5 | |||||
| 05 | 03:53 | Calm | 10.00 | Overcast | OVC018 | 53.1 | 50 | 89% | 29.96 | 1014.2 | |||||||
| 05 | 02:53 | Calm | 10.00 | Mostly Cloudy | BKN022 | 50 | 48 | 93% | 29.95 | 1014.0 | |||||||
| 05 | 01:53 | W 5 | 10.00 | A Few Clouds | FEW035 | 53.1 | 48.9 | 86% | 29.94 | 1013.6 | |||||||
| 05 | 00:53 | W 8 | 10.00 | Fair | CLR | 54 | 50 | 87% | 29.93 | 1013.2 | |||||||
| 04 | 23:53 | NW 6 | 10.00 | Fair | CLR | 54 | 50 | 87% | 29.9 | 1012.5 | |||||||
| 04 | 22:53 | W 7 | 10.00 | Fair | CLR | 59 | 52 | 75 | 59 | 78% | 29.88 | 1011.7 | |||||
| 04 | 21:53 | W 6 | 10.00 | Fair | CLR | 62.1 | 53.1 | 73% | 29.87 | 1011.4 | |||||||
| 04 | 20:53 | W 9 | 10.00 | Fair | CLR | 66 | 54 | 65% | 29.84 | 1010.4 | |||||||
| 04 | 19:53 | W 7 | 10.00 | Fair | CLR | 71.1 | 55.9 | 59% | 29.82 | 1009.6 | |||||||
| 04 | 18:53 | SW 5 | 10.00 | Fair | CLR | 73.9 | 57 | 56% | 29.82 | 1009.5 | |||||||
| 04 | 17:53 | Vrbl 6 | 10.00 | Fair | CLR | 75 | 57 | 54% | 78 | 29.83 | 1009.8 | ||||||
| 04 | 16:53 | SW 9 | 10.00 | Fair | CLR | 75 | 57.9 | 75 | 59 | 55% | 78 | 29.83 | 1010.0 | ||||
| 04 | 15:53 | SW 6 | 10.00 | Fair | CLR | 73 | 57 | 57% | 29.85 | 1010.5 | |||||||
| 04 | 14:53 | Calm | 10.00 | Fair | CLR | 70 | 55.9 | 61% | 29.87 | 1011.2 | |||||||
| Date | Time (pdt) | Wind (mph) | Vis. (mi.) | Weather | Sky Cond. | Air | Dwpt | Max. | Min. | Relative Humidity | Wind Chill (°F) | Heat Index (°F) | altimeter (in) | sea level (mb) | 1 hr | 3 hr | 6 hr |
| 6 hour | |||||||||||||||||
| Temperature (ºF) | Pressure | Precipitation (in) | |||||||||||||||